Change the Weather History Date:

Monday, April 1, 2013

  Actual Average Record
Temperature  
Mean Temperature 74 °F -  
Max Temperature 84 °F 78 °F 88 °F (2012)
Min Temperature 64 °F 59 °F 45 °F (2003)
Cooling Degree Days 9    
Growing Degree Days 24 (Base 50)    
Moisture  
Dew Point 60 °F    
Average Humidity 64    
Maximum Humidity 87    
Minimum Humidity 41    
Precipitation  
Precipitation 0.00 in - - ()
Sea Level Pressure  
Sea Level Pressure 30.01 in    
Wind  
Wind Speed 7 mph (WSW)    
Max Wind Speed 17 mph    
Max Gust Speed 24 mph    
Visibility 10 miles    
Events      
Averages and records for this station are not official NWS values.
T = Trace of Precipitation, MM = Missing Value Source: NWS Daily Summary

Daily Weather History Graph

Daily Weather History Graph

Search for Another Location

Airport or City:

Trip Planner

Search our weather history database for the weather conditions in past years. The results will help you decide how hot, cold, wet, or windy it might be!

Date:

Astronomy

Apr. 01, 2013 Rise Set
Actual Time 7:15 AM EDT 7:43 PM EDT
Civil Twilight 6:51 AM EDT 8:07 PM EDT
Nautical Twilight 6:23 AM EDT 8:35 PM EDT
Astronomical Twilight 5:55 AM EDT 9:03 PM EDT
Moon 12:29 AM EDT (4/1) 11:21 AM EDT (4/1)
Length of Visible Light 13h 15m
Length of Day
12h 28m
Waning Gibbous, 67% of the Moon is Illuminated
Apr 1
Waning Gibbous
Apr 3
Last Quarter
Apr 10
New
Apr 18
First Quarter
Apr 25
Full

Hourly Weather History & Observations

Time (EDT) Temp. Heat Index Dew Point Humidity Pressure Visibility Wind Dir Wind Speed Gust Speed Precip Events Conditions
12:53 AM 69.1 °F - 57.0 °F 65% 30.04 in 10.0 mi Calm Calm - N/A   Mostly Cloudy
1:53 AM 66.9 °F - 57.0 °F 70% 30.04 in 10.0 mi South 3.5 mph - N/A   Overcast
2:53 AM 66.9 °F - 57.9 °F 73% 30.03 in 10.0 mi South 4.6 mph - N/A   Mostly Cloudy
3:53 AM 66.9 °F - 59.0 °F 76% 30.01 in 10.0 mi South 8.1 mph - N/A   Clear
4:53 AM 64.9 °F - 59.0 °F 81% 30.02 in 10.0 mi SSW 3.5 mph - N/A   Mostly Cloudy
5:53 AM 64.0 °F - 59.0 °F 84% 30.02 in 10.0 mi SSW 3.5 mph - N/A   Clear
6:53 AM 64.0 °F - 60.1 °F 87% 30.03 in 10.0 mi South 4.6 mph - N/A   Clear
8:53 AM 66.9 °F - 62.1 °F 84% 30.06 in 10.0 mi SSW 4.6 mph - N/A   Clear
10:53 AM 75.9 °F - 63.0 °F 64% 30.04 in 10.0 mi SW 11.5 mph - N/A   Clear
11:53 AM 80.1 °F 81.1 °F 61.0 °F 52% 30.04 in 10.0 mi SW 12.7 mph 23.0 mph N/A   Partly Cloudy
12:53 PM 80.1 °F 80.7 °F 59.0 °F 48% 30.01 in 10.0 mi WSW 13.8 mph - N/A   Mostly Cloudy
1:53 PM 82.0 °F 82.1 °F 59.0 °F 45% 29.99 in 10.0 mi WSW 16.1 mph 24.2 mph N/A   Scattered Clouds
3:53 PM 84.0 °F 83.5 °F 57.9 °F 41% 29.96 in 10.0 mi West 15.0 mph 23.0 mph N/A   Partly Cloudy
4:53 PM 82.9 °F 82.4 °F 57.0 °F 41% 29.95 in 10.0 mi West 17.3 mph 24.2 mph N/A   Partly Cloudy
5:53 PM 82.0 °F 81.7 °F 57.0 °F 42% 29.95 in 10.0 mi WNW 15.0 mph - N/A   Clear
6:53 PM 79.0 °F - 59.0 °F 50% 29.97 in 10.0 mi WNW 15.0 mph - N/A   Partly Cloudy
7:53 PM 77.0 °F - 60.1 °F 56% 29.98 in 10.0 mi WNW 11.5 mph - N/A   Clear
8:53 PM 75.0 °F - 61.0 °F 62% 30.00 in 10.0 mi West 11.5 mph - N/A   Clear
9:53 PM 73.0 °F - 62.1 °F 68% 30.02 in 10.0 mi West 10.4 mph - N/A   Clear
10:53 PM 71.1 °F - 62.1 °F 73% 30.03 in 10.0 mi WSW 6.9 mph - N/A   Clear
11:53 PM 70.0 °F - 63.0 °F 78% 30.02 in 10.0 mi WSW 8.1 mph - N/A   Clear